{"data":{"norad_id":61218,"intl_designator":"2024-171U","name":"STARLINK-32423","alt_names":[],"object_type":"PAYLOAD","status":"ACTIVE","operator":null,"country":"US","launch_date":"2024-09-20","launch_site_code":"AFWTR","launch_vehicle":null,"mission":null,"orbit_class":"UNKNOWN","rcs_meters":null,"size_class":null,"mass_kg":null,"dimensions":null,"purposes":["comms"],"wikipedia_slug":null,"has_3d_model":false,"image_url":null,"decayed_at":null,"tle_current":{"epoch":"2026-09-21T20:04:25.846464Z","epoch_age_seconds":76670,"freshness":"FRESH","line1":"1 61218U 24171U   26264.83641026  .00000497  00000+0  27791-4 0  9992","line2":"2 61218  53.1590 130.3544 0001304  99.0967 261.0182 15.31704877113324","mean_motion":15.31704877,"eccentricity":0.0001304,"inclination_deg":53.159,"raan_deg":130.3544,"arg_perigee_deg":99.0967,"mean_anomaly_deg":261.0182,"bstar":2.7791e-5,"rev_number":11332,"period_min":94.012888619927,"perigee_km":469.83236551659,"apogee_km":471.61854884542,"semimajor_km":6848.862457181,"source":"CELESTRAK","updated_at":"2026-09-22T09:00:49.343449Z"}}}